Powrót do katalogu

COSMOS 1249 COOLANT

AktywnyLEO
NORAD 26503·DEBRIS·🇷🇺 Russia

Wystrzelony Mar 5, 1981 z Baikonur Cosmodrome

Loading…

Następne Przeloty (najbliższe 24 godziny)

TLE

ŚwieżeSource: Space-Track

Epoka: Sep 13, 2026, 04:52 UTC

1 26503U 81021E   26256.20329066  .00000044  00000-0  10399-3 0  9990
2 26503  64.9578  64.5963 0061472 238.9819 296.7423 13.92183192345408

Śledź COSMOS 1249 COOLANT w czasie rzeczywistym z AllMySat

Download on the App Store